"Pseudo-MPEC" for P20QqzL

Created 2019 Aug 15 2:07:13 UT using Find_Orb

Click here for an explanation of pseudo-MPECs

 
 Astrometry: 
     P20QqzL  C2019 08 08mBk2VAstrometryhXtredacted;H]gPj^bf@Kt/8^e\*9uSIPkA3F52
     P20QqzL  C2019 08 08!cEP%m3FCW_`w%er4WVy:;9iH?Ib;6c$[9^(click^K8C15HP-6.F52
     P20QqzL  C2019 08 086HY)7[E1*-LtK*Uhhere]y'c7JNM%hc3,S5?for\explanationLF52

Station data:
(F52) Pan-STARRS 2, Haleakala  (N20.707384 W156.255910)  US/Hawaii. 1.8-m
   Ritchey-Chrétien + CCD.

Orbital elements:  P20QqzL
   Perihelion 2019 Sep 4.716559 +/- 33.3 TT = 17:11:50 (JD 2458731.216559)
Epoch 2019 Aug  9.0 TT = JDT 2458704.5   Earth MOID: 0.0284   AutoNEOCP
M 337.42503531 +/- 31               (J2000 ecliptic)
n   0.84498026 +/- 0.495            Peri.   25.37098 +/- 60
a   1.10808141 +/- 0.433            Node   317.20409 +/- 25
e   0.0639751 +/- 0.254             Incl.    2.42058 +/- 9
P   1.17/426.04d           H 27.6   G  0.15   U 12.3  SR
q 1.03719178 +/- 0.393    Q 1.17897105 +/- 30.7
From 3 observations 2019 Aug. 8 (50.1 min); mean residual 0".04
Residuals in arcseconds: 
190808 F52  .02-  .05-    190808 F52  .03+  .08+    190808 F52  .01-  .03-    

Ephemerides (geocentric):
Date (UTC) HH   RA              Dec         delta   r     elong  mag " sig PA
---- -- -- --  -------------   -----------  ------ ------ -----  --- ---- ---
2019 08 15 02  23 33 33.694   +04 57 48.91  .03385 1.0409 145.2 21.8  74d 176
2019 08 15 03  23 33 37.626   +05 01 41.60  .03384 1.0409 145.1 21.8  74d 176
2019 08 15 04  23 33 41.553   +05 05 34.28  .03384 1.0409 145.1 21.8  74d 176
2019 08 15 05  23 33 45.474   +05 09 26.95  .03383 1.0408 145.1 21.8  74d 176
2019 08 15 06  23 33 49.391   +05 13 19.61  .03383 1.0408 145.1 21.8  74d 176
2019 08 15 07  23 33 53.302   +05 17 12.27  .03382 1.0408 145.1 21.8  74d 175
2019 08 15 08  23 33 57.208   +05 21 04.91  .03382 1.0408 145.1 21.8  75d 176
2019 08 15 09  23 34 01.109   +05 24 57.54  .03382 1.0408 145.1 21.8  75d 176
2019 08 15 10  23 34 05.004   +05 28 50.16  .03381 1.0408 145.1 21.8  75d 176
2019 08 15 11  23 34 08.894   +05 32 42.76  .03381 1.0408 145.1 21.8  75d 176
2019 08 15 12  23 34 12.780   +05 36 35.35  .03380 1.0407 145.0 21.8  75d 176
2019 08 15 13  23 34 16.659   +05 40 27.93  .03380 1.0407 145.0 21.8  75d 176
2019 08 15 14  23 34 20.534   +05 44 20.49  .03379 1.0407 145.0 21.8  75d 176
2019 08 15 15  23 34 24.403   +05 48 13.02  .03379 1.0407 145.0 21.8  75d 176
2019 08 15 16  23 34 28.267   +05 52 05.55  .03379 1.0407 145.0 21.8  75d 176
2019 08 15 17  23 34 32.126   +05 55 58.05  .03378 1.0407 145.0 21.8  75d 176
2019 08 15 18  23 34 35.980   +05 59 50.53  .03378 1.0406 145.0 21.8  75d 177
2019 08 15 19  23 34 39.828   +06 03 42.98  .03377 1.0406 145.0 21.8  75d 177
2019 08 15 20  23 34 43.671   +06 07 35.42  .03377 1.0406 145.0 21.8  75d 177
2019 08 15 21  23 34 47.508   +06 11 27.83  .03377 1.0406 144.9 21.8  75d 177
2019 08 15 22  23 34 51.341   +06 15 20.22  .03376 1.0406 144.9 21.8  75d 177
2019 08 15 23  23 34 55.168   +06 19 12.58  .03376 1.0406 144.9 21.8  75d 177
2019 08 16 00  23 34 58.989   +06 23 04.91  .03376 1.0406 144.9 21.8  75d 177
2019 08 16 01  23 35 02.806   +06 26 57.22  .03375 1.0405 144.9 21.8  75d 177
2019 08 16 02  23 35 06.616   +06 30 49.49  .03375 1.0405 144.9 21.8  75d 177
2019 08 16 03  23 35 10.422   +06 34 41.74  .03375 1.0405 144.9 21.8  76d 177
2019 08 16 04  23 35 14.222   +06 38 33.96  .03374 1.0405 144.9 21.8  76d 177
2019 08 16 05  23 35 18.017   +06 42 26.14  .03374 1.0405 144.9 21.8  76d 177
2019 08 16 06  23 35 21.806   +06 46 18.29  .03374 1.0405 144.8 21.8  76d 177
2019 08 16 07  23 35 25.591   +06 50 10.41  .03373 1.0405 144.8 21.8  76d 177
2019 08 16 08  23 35 29.369   +06 54 02.49  .03373 1.0404 144.8 21.8  76d 177
2019 08 16 09  23 35 33.142   +06 57 54.54  .03373 1.0404 144.8 21.8  76d 177
2019 08 16 10  23 35 36.910   +07 01 46.55  .03372 1.0404 144.8 21.8  76d 177
2019 08 16 11  23 35 40.673   +07 05 38.52  .03372 1.0404 144.8 21.8  76d 177
2019 08 16 12  23 35 44.429   +07 09 30.46  .03372 1.0404 144.8 21.8  76d 177
2019 08 16 13  23 35 48.181   +07 13 22.35  .03372 1.0404 144.8 21.8  76d 178
2019 08 16 14  23 35 51.927   +07 17 14.21  .03371 1.0404 144.7 21.8  76d 178
2019 08 16 15  23 35 55.668   +07 21 06.02  .03371 1.0403 144.7 21.8  76d 178
2019 08 16 16  23 35 59.403   +07 24 57.78  .03371 1.0403 144.7 21.8  76d 178
2019 08 16 17  23 36 03.132   +07 28 49.51  .03371 1.0403 144.7 21.8  76d 178
2019 08 16 18  23 36 06.856   +07 32 41.19  .03370 1.0403 144.7 21.8  76d 178
2019 08 16 19  23 36 10.575   +07 36 32.82  .03370 1.0403 144.7 21.8  76d 178
2019 08 16 20  23 36 14.288   +07 40 24.41  .03370 1.0403 144.7 21.8  76d 178
2019 08 16 21  23 36 17.996   +07 44 15.95  .03370 1.0403 144.7 21.8  76d 178
2019 08 16 22  23 36 21.698   +07 48 07.44  .03369 1.0403 144.6 21.8  76d 178
2019 08 16 23  23 36 25.394   +07 51 58.88  .03369 1.0402 144.6 21.8  76d 178
2019 08 17 00  23 36 29.085   +07 55 50.27  .03369 1.0402 144.6 21.8  76d 178
2019 08 17 01  23 36 32.771   +07 59 41.61  .03369 1.0402 144.6 21.8  76d 178